Heath, OH

3:15 PM EST on December 08, 2016 (GMT -0500)
Newark Heath

Weather History for KVTA - December, 2013

Change the Weather History Date:

Monday, December 2, 2013

  Actual Average Record
Temperature  
Mean Temperature 40 °F -  
Max Temperature 48 °F 44 °F 72 °F (1982)
Min Temperature 33 °F 27 °F 7 °F (1942)
Degree Days  
Heating Degree Days 24    
Moisture  
Dew Point 33 °F    
Average Humidity 80    
Maximum Humidity 93    
Minimum Humidity 61    
Precipitation  
Precipitation 0.04 in - - ()
Sea Level Pressure  
Sea Level Pressure 29.89 in    
Wind  
Wind Speed 1 mph (NNE)    
Max Wind Speed 6 mph    
Max Gust Speed -    
Visibility 7 miles    
Events Rain    
Averages and records for this station are not official NWS values.
T = Trace of Precipitation, MM = Missing Value Source: NWS Daily Summary

Daily Weather History Graph

Daily Weather History Graph

Search for Another Location

Airport or City:

Trip Planner

Search our weather history database for the weather conditions in past years. The results will help you decide how hot, cold, wet, or windy it might be!

Date:

Astronomy

Dec. 02, 2013 Rise Set
Actual Time 7:33 AM EST 5:04 PM EST
Civil Twilight 7:03 AM EST 5:34 PM EST
Nautical Twilight 6:30 AM EST 6:08 PM EST
Astronomical Twilight 5:57 AM EST 6:41 PM EST
Moon 6:57 AM EST (12/2) 5:06 PM EST (12/2)
Length of Visible Light 10h 31m
Length of Day
9h 31m
Waning Crescent, 0% of the Moon is Illuminated
Dec 2
Waning Crescent
Dec 2
New
Dec 9
First Quarter
Dec 17
Full
Dec 25
Last Quarter

Hourly Weather History & Observations

Time (EST) Temp. Windchill Dew Point Humidity Pressure Visibility Wind Dir Wind Speed Gust Speed Precip Events Conditions
12:54 AM 34.0 °F - 30.0 °F 85% 29.95 in 10.0 mi Calm Calm - N/A   Clear
1:54 AM 33.1 °F - 30.0 °F 89% 29.94 in 9.0 mi Calm Calm - N/A   Clear
2:54 AM 33.1 °F - 30.0 °F 89% 29.95 in 9.0 mi Calm Calm - N/A   Scattered Clouds
3:54 AM 33.1 °F - 30.0 °F 89% 29.93 in 8.0 mi Calm Calm - N/A   Overcast
4:54 AM 33.1 °F - 30.0 °F 89% 29.92 in 8.0 mi Calm Calm - N/A   Overcast
5:54 AM 33.1 °F - 30.0 °F 89% 29.91 in 8.0 mi Calm Calm - N/A   Partly Cloudy
6:54 AM 34.0 °F 31.0 °F 30.9 °F 89% 29.93 in 8.0 mi North 3.5 mph - N/A   Overcast
7:54 AM 34.0 °F - 30.9 °F 89% 29.94 in 8.0 mi Calm Calm - N/A   Overcast
8:54 AM 36.0 °F - 32.0 °F 86% 29.93 in 8.0 mi Calm Calm - N/A   Mostly Cloudy
9:54 AM 39.9 °F - 33.1 °F 77% 29.92 in 7.0 mi Calm Calm - N/A   Clear
10:54 AM 43.0 °F 40.3 °F 34.0 °F 71% 29.90 in 6.0 mi ENE 4.6 mph - N/A   Haze
11:54 AM 46.0 °F - 34.0 °F 63% 29.88 in 7.0 mi Calm Calm - N/A   Mostly Cloudy
12:54 PM 46.9 °F - 34.0 °F 61% 29.86 in 9.0 mi Calm Calm - N/A   Overcast
1:54 PM 48.0 °F - 35.1 °F 61% 29.85 in 8.0 mi Calm Calm - N/A   Overcast
2:54 PM 46.9 °F - 35.1 °F 63% 29.84 in 7.0 mi NNE 5.8 mph - N/A   Mostly Cloudy
3:54 PM 44.1 °F 41.5 °F 35.1 °F 71% 29.84 in 6.0 mi North 4.6 mph - N/A   Haze
4:54 PM 44.1 °F 42.5 °F 35.1 °F 71% 29.85 in 5.0 mi North 3.5 mph - N/A   Haze
5:54 PM 42.1 °F 40.2 °F 34.0 °F 73% 29.85 in 6.0 mi NNE 3.5 mph - N/A   Haze
6:54 PM 41.0 °F 39.0 °F 34.0 °F 76% 29.86 in 5.0 mi North 3.5 mph - N/A   Haze
7:54 PM 39.9 °F 37.8 °F 33.1 °F 77% 29.87 in 5.0 mi NE 3.5 mph - N/A   Haze
8:54 PM 39.9 °F 37.8 °F 33.1 °F 77% 29.87 in 5.0 mi NNE 3.5 mph - N/A   Haze
9:54 PM 39.0 °F 36.8 °F 34.0 °F 82% 29.87 in 4.0 mi NNE 3.5 mph - 0.00 in Rain Light Rain
10:54 PM 37.9 °F - 35.1 °F 89% 29.87 in 3.0 mi Calm Calm - 0.02 in Rain Light Rain
11:05 PM 37.4 °F - 35.6 °F 93% 29.85 in 2.5 mi Calm Calm - 0.00 in Rain Light Rain
11:54 PM 37.9 °F 35.5 °F 35.1 °F 89% 29.86 in 2.5 mi ENE 3.5 mph - 0.02 in Rain Light Rain